Location: La Chapelle
(48.3135°N, 1.3085°W)
Time: 07:45:30
(UTC+00:00)

Meteor 1-13 Rocket - Pass Details

Date: 03 March 2021
Orbit: 830 x 913 km, 81.3° (Epoch: 11 April)

Event Time Altitude Azimuth Distance (km) Brightness Sun altitude
Rises 19:34:57 0° 349° (N) 3,559 7.7 -17.7°
Reaches altitude 10° 19:37:27 10° 352° (N) 2,611 7.0 -18.2°
Maximum altitude 19:43:25 73° 77° (ENE) 950 4.2 -19.1°
Enters shadow 19:48:36 14° 161° (SSE) 2,311 6.2 -20.0°
